| time (UTC) | temp F | wind direction | speed knots | gust knots | rain 1hr in | rain 24hr in | rain mn in | humidity % | barometer mb |
| 20260506203626 | 48 | 341 | 3.5 | 5.2 | 0.00 | 0.51 | 0.49 | 83 | 1011.2 |
| 20260506203123 | 48 | 0 | 3.5 | 6.1 | 0.00 | 0.51 | 0.49 | 83 | 1011.2 |
| 20260506202623 | 48 | 354 | 3.5 | 6.1 | 0.00 | 0.52 | 0.49 | 83 | 1011.2 |
| 20260506202123 | 48 | 302 | 3.5 | 5.2 | 0.00 | 0.52 | 0.49 | 83 | 1011.2 |
| 20260506201624 | 48 | 334 | 2.6 | 4.3 | 0.00 | 0.52 | 0.49 | 83 | 1011.1 |
| 20260506201120 | 48 | 357 | 2.6 | 4.3 | 0.00 | 0.52 | 0.49 | 83 | 1011.2 |
| 20260506200618 | 48 | 338 | 2.6 | 4.3 | 0.00 | 0.52 | 0.49 | 83 | 1011.2 |
| 20260506200353 | 48 | 353 | 1.7 | 3.5 | 0.00 | 0.52 | 0.49 | 83 | 1011.2 |
| 20260506195619 | 48 | 347 | 0.9 | 3.5 | 0.00 | 0.53 | 0.49 | 83 | 1011.0 |
| 20260506195121 | 48 | 334 | 1.7 | 3.5 | 0.00 | 0.53 | 0.49 | 83 | 1011.0 |
| 20260506194848 | 48 | 354 | 2.6 | 3.5 | 0.00 | 0.53 | 0.49 | 83 | 1011.0 |
| 20260506194353 | 48 | 350 | 2.6 | 3.5 | 0.00 | 0.53 | 0.49 | 83 | 1010.9 |
| 20260506193616 | 48 | 345 | 1.7 | 3.5 | 0.00 | 0.53 | 0.49 | 83 | 1010.8 |
| 20260506193113 | 48 | 353 | 1.7 | 3.5 | 0.00 | 0.53 | 0.49 | 83 | 1010.8 |
| 20260506192613 | 48 | 355 | 1.7 | 5.2 | 0.00 | 0.53 | 0.49 | 83 | 1010.8 |
| 20260506192118 | 48 | 20 | 3.5 | 5.2 | 0.00 | 0.53 | 0.49 | 83 | 1010.7 |
| 20260506191609 | 48 | 4 | 3.5 | 5.2 | 0.00 | 0.53 | 0.49 | 83 | 1010.6 |
| 20260506191110 | 48 | 0 | 3.5 | 6.1 | 0.00 | 0.53 | 0.49 | 83 | 1010.7 |
| 20260506190841 | 48 | 357 | 4.3 | 6.1 | 0.00 | 0.53 | 0.49 | 83 | 1010.6 |
| 20260506190112 | 49 | 341 | 3.5 | 5.2 | 0.00 | 0.53 | 0.49 | 83 | 1010.4 |
| 20260506185604 | 49 | 336 | 1.7 | 4.3 | 0.00 | 0.53 | 0.49 | 83 | 1010.5 |
| 20260506185339 | 48 | 4 | 1.7 | 4.3 | 0.00 | 0.53 | 0.49 | 82 | 1010.5 |
| 20260506184841 | 48 | 336 | 0.9 | 3.5 | 0.00 | 0.53 | 0.49 | 83 | 1010.4 |
| 20260506184103 | 48 | 13 | 1.7 | 3.5 | 0.00 | 0.53 | 0.49 | 83 | 1010.4 |
| 20260506183830 | 48 | 358 | 0.9 | 3.5 | 0.00 | 0.53 | 0.49 | 82 | 1010.3 |
| 20260506183057 | 48 | 24 | 0.9 | 2.6 | 0.00 | 0.53 | 0.49 | 82 | 1010.2 |
| 20260506182555 | 48 | 7 | 1.7 | 4.3 | 0.00 | 0.53 | 0.49 | 82 | 1010.3 |
| 20260506182053 | 48 | 21 | 2.6 | 6.1 | 0.00 | 0.53 | 0.49 | 82 | 1010.2 |
| 20260506181825 | 48 | 30 | 4.3 | 7.8 | 0.00 | 0.53 | 0.49 | 82 | 1010.1 |
| 20260506181054 | 49 | 18 | 4.3 | 7.8 | 0.00 | 0.53 | 0.49 | 82 | 1010.0 |
| 20260506180554 | 49 | 319 | 2.6 | 5.2 | 0.00 | 0.53 | 0.49 | 82 | 1010.0 |
| 20260506180058 | 49 | 326 | 2.6 | 5.2 | 0.00 | 0.53 | 0.49 | 81 | 1010.0 |
| 20260506175554 | 49 | 351 | 3.5 | 8.7 | 0.00 | 0.53 | 0.49 | 81 | 1009.9 |
| 20260506175048 | 49 | 330 | 4.3 | 8.7 | 0.00 | 0.53 | 0.49 | 81 | 1009.9 |
| 20260506174548 | 49 | 11 | 5.2 | 7.8 | 0.00 | 0.53 | 0.49 | 81 | 1009.9 |
| 20260506174047 | 49 | 0 | 4.3 | 7.8 | 0.00 | 0.53 | 0.49 | 81 | 1009.7 |
| 20260506173546 | 49 | 10 | 4.3 | 9.6 | 0.00 | 0.53 | 0.49 | 81 | 1009.7 |
| 20260506173047 | 49 | 0 | 5.2 | 9.6 | 0.00 | 0.53 | 0.49 | 81 | 1009.7 |
| 20260506172548 | 49 | 23 | 5.2 | 9.6 | 0.00 | 0.53 | 0.49 | 81 | 1009.5 |
| 20260506172043 | 49 | 354 | 3.5 | 10.4 | 0.00 | 0.53 | 0.49 | 81 | 1009.5 |
| 20260506171544 | 49 | 41 | 4.3 | 8.7 | 0.00 | 0.53 | 0.49 | 81 | 1009.4 |
| 20260506171042 | 49 | 355 | 1.7 | 5.2 | 0.00 | 0.53 | 0.49 | 81 | 1009.4 |
| 20260506170542 | 49 | 343 | 2.6 | 6.1 | 0.00 | 0.53 | 0.49 | 81 | 1009.3 |
| 20260506170043 | 49 | 357 | 3.5 | 6.1 | 0.00 | 0.53 | 0.49 | 81 | 1009.4 |
| 20260506165540 | 49 | 1 | 2.6 | 6.1 | 0.00 | 0.53 | 0.49 | 81 | 1009.5 |
| 20260506165041 | 49 | 47 | 3.5 | 8.7 | 0.00 | 0.53 | 0.49 | 81 | 1009.4 |
| 20260506164539 | 49 | 11 | 5.2 | 8.7 | 0.00 | 0.53 | 0.49 | 81 | 1009.3 |
| 20260506164039 | 49 | 1 | 4.3 | 8.7 | 0.00 | 0.53 | 0.49 | 81 | 1009.3 |
| 20260506163537 | 49 | 347 | 4.3 | 8.7 | 0.00 | 0.53 | 0.49 | 81 | 1009.2 |
| 20260506163036 | 49 | 27 | 5.2 | 8.7 | 0.00 | 0.53 | 0.49 | 81 | 1009.3 |
| 20260506162536 | 49 | 14 | 4.3 | 10.4 | 0.00 | 0.53 | 0.49 | 81 | 1009.2 |
| 20260506162043 | 49 | 341 | 4.3 | 10.4 | 0.00 | 0.53 | 0.49 | 81 | 1009.2 |
| 20260506161536 | 49 | 18 | 4.3 | 9.6 | 0.00 | 0.53 | 0.49 | 81 | 1009.3 |
| 20260506161313 | 49 | 354 | 5.2 | 9.6 | 0.00 | 0.53 | 0.49 | 82 | 1009.2 |
| 20260506160536 | 49 | 338 | 2.6 | 5.2 | 0.00 | 0.53 | 0.49 | 82 | 1009.2 |
| 20260506160043 | 49 | 353 | 2.6 | 7.8 | 0.00 | 0.53 | 0.49 | 82 | 1009.2 |
| 20260506155533 | 49 | 4 | 3.5 | 8.7 | 0.00 | 0.53 | 0.49 | 82 | 1009.2 |
| 20260506155034 | 49 | 48 | 3.5 | 9.6 | 0.00 | 0.53 | 0.49 | 82 | 1009.2 |
| 20260506154533 | 49 | 353 | 5.2 | 9.6 | 0.00 | 0.53 | 0.49 | 82 | 1009.1 |
| 20260506154032 | 49 | 32 | 4.3 | 9.6 | 0.00 | 0.53 | 0.49 | 83 | 1009.2 |
| 20260506153532 | 49 | 23 | 6.1 | 9.6 | 0.00 | 0.53 | 0.49 | 83 | 1009.0 |
| 20260506153030 | 49 | 4 | 2.6 | 8.7 | 0.00 | 0.53 | 0.49 | 83 | 1009.1 |
| 20260506152530 | 49 | 355 | 5.2 | 8.7 | 0.00 | 0.53 | 0.49 | 83 | 1009.1 |
| 20260506152300 | 49 | 32 | 5.2 | 8.7 | 0.00 | 0.53 | 0.49 | 83 | 1009.2 |
| 20260506151523 | 49 | 0 | 3.5 | 8.7 | 0.00 | 0.53 | 0.49 | 83 | 1009.1 |
| 20260506151023 | 49 | 358 | 4.3 | 8.7 | 0.00 | 0.53 | 0.49 | 83 | 1009.0 |
| 20260506150523 | 49 | 357 | 5.2 | 8.7 | 0.00 | 0.53 | 0.49 | 83 | 1009.0 |
| 20260506150304 | 49 | 324 | 5.2 | 7.8 | 0.00 | 0.53 | 0.49 | 83 | 1009.0 |
| 20260506145522 | 49 | 323 | 5.2 | 9.6 | 0.00 | 0.53 | 0.49 | 83 | 1009.1 |
| 20260506145019 | 49 | 330 | 5.2 | 9.6 | 0.00 | 0.53 | 0.49 | 83 | 1009.0 |
| 20260506144521 | 49 | 358 | 3.5 | 7.8 | 0.00 | 0.53 | 0.49 | 83 | 1008.9 |
| 20260506144020 | 49 | 344 | 4.3 | 8.7 | 0.00 | 0.53 | 0.49 | 83 | 1008.9 |
| 20260506143521 | 49 | 343 | 5.2 | 9.6 | 0.00 | 0.53 | 0.49 | 83 | 1008.9 |
| 20260506143019 | 49 | 329 | 5.2 | 10.4 | 0.00 | 0.53 | 0.49 | 83 | 1008.9 |
| 20260506142752 | 49 | 336 | 5.2 | 11.3 | 0.00 | 0.53 | 0.49 | 83 | 1009.0 |
| 20260506142019 | 49 | 0 | 5.2 | 11.3 | 0.00 | 0.53 | 0.49 | 84 | 1008.9 |
| 20260506141518 | 49 | 351 | 5.2 | 9.6 | 0.00 | 0.53 | 0.49 | 84 | 1008.8 |
| 20260506141018 | 49 | 350 | 6.1 | 9.6 | 0.00 | 0.53 | 0.49 | 84 | 1008.8 |
| 20260506140519 | 49 | 336 | 3.5 | 7.8 | 0.00 | 0.53 | 0.49 | 85 | 1008.8 |
| 20260506140021 | 49 | 3 | 4.3 | 8.7 | 0.00 | 0.53 | 0.49 | 85 | 1008.9 |
| 20260506135019 | 49 | 1 | 3.5 | 5.2 | 0.00 | 0.53 | 0.49 | 85 | 1008.9 |
| 20260506134518 | 49 | 6 | 4.3 | 7.8 | 0.00 | 0.53 | 0.49 | 85 | 1008.9 |
| 20260506134017 | 49 | 351 | 4.3 | 8.7 | 0.00 | 0.53 | 0.49 | 85 | 1008.8 |
| 20260506133517 | 49 | 345 | 4.3 | 8.7 | 0.00 | 0.53 | 0.49 | 85 | 1008.8 |
| 20260506133013 | 49 | 296 | 3.5 | 8.7 | 0.00 | 0.53 | 0.49 | 86 | 1008.8 |
| 20260506132747 | 49 | 353 | 5.2 | 9.6 | 0.01 | 0.53 | 0.49 | 86 | 1008.7 |
| 20260506132019 | 49 | 0 | 4.3 | 10.4 | 0.01 | 0.53 | 0.49 | 86 | 1008.8 |
| 20260506131515 | 49 | 317 | 6.1 | 10.4 | 0.01 | 0.53 | 0.49 | 86 | 1008.8 |
| 20260506131015 | 49 | 350 | 6.1 | 9.6 | 0.01 | 0.53 | 0.49 | 86 | 1008.8 |
| 20260506130514 | 49 | 344 | 5.2 | 8.7 | 0.01 | 0.53 | 0.49 | 86 | 1008.6 |
| 20260506130016 | 49 | 344 | 4.3 | 8.7 | 0.01 | 0.52 | 0.49 | 86 | 1008.6 |
| 20260506125512 | 49 | 320 | 4.3 | 10.4 | 0.01 | 0.52 | 0.49 | 86 | 1008.6 |
| 20260506125012 | 48 | 0 | 4.3 | 12.2 | 0.01 | 0.52 | 0.49 | 87 | 1008.6 |
| 20260506124515 | 48 | 357 | 7.8 | 12.2 | 0.01 | 0.52 | 0.49 | 86 | 1008.5 |
| 20260506124015 | 48 | 330 | 6.1 | 8.7 | 0.01 | 0.52 | 0.49 | 86 | 1008.6 |
| 20260506123514 | 48 | 0 | 5.2 | 8.7 | 0.01 | 0.52 | 0.49 | 86 | 1008.6 |
| 20260506123014 | 48 | 0 | 7.0 | 9.6 | 0.01 | 0.52 | 0.49 | 86 | 1008.6 |
| 20260506122506 | 48 | 20 | 4.3 | 9.6 | 0.00 | 0.52 | 0.48 | 86 | 1008.4 |
| 20260506122005 | 49 | 358 | 3.5 | 8.7 | 0.01 | 0.52 | 0.48 | 87 | 1008.4 |
| 20260506121505 | 48 | 343 | 5.2 | 10.4 | 0.01 | 0.52 | 0.48 | 87 | 1008.4 |
| 20260506121006 | 49 | 14 | 3.5 | 13.0 | 0.01 | 0.52 | 0.48 | 87 | 1008.3 |
| 20260506120517 | 48 | 0 | 7.0 | 13.0 | 0.01 | 0.52 | 0.48 | 87 | 1008.3 |
| 20260506120007 | 49 | 331 | 5.2 | 10.4 | 0.01 | 0.51 | 0.48 | 87 | 1008.3 |
| 20260506115504 | 48 | 0 | 6.1 | 12.2 | 0.01 | 0.51 | 0.48 | 87 | 1008.2 |
| 20260506115006 | 49 | 340 | 7.8 | 12.2 | 0.02 | 0.51 | 0.48 | 87 | 1008.2 |
| 20260506114502 | 48 | 357 | 6.1 | 13.0 | 0.02 | 0.51 | 0.48 | 87 | 1008.3 |
| 20260506114001 | 48 | 353 | 7.8 | 13.0 | 0.02 | 0.51 | 0.48 | 87 | 1008.2 |
| 20260506113502 | 48 | 0 | 7.0 | 12.2 | 0.02 | 0.51 | 0.48 | 88 | 1008.1 |
| 20260506112959 | 48 | 341 | 7.8 | 12.2 | 0.02 | 0.51 | 0.48 | 88 | 1008.1 |
| 20260506112459 | 48 | 0 | 6.1 | 12.2 | 0.02 | 0.51 | 0.48 | 88 | 1008.0 |
| 20260506112002 | 48 | 4 | 6.1 | 10.4 | 0.02 | 0.51 | 0.47 | 88 | 1008.1 |
| 20260506111459 | 48 | 14 | 6.1 | 10.4 | 0.02 | 0.51 | 0.47 | 88 | 1008.0 |
| 20260506110958 | 48 | 0 | 4.3 | 11.3 | 0.02 | 0.51 | 0.47 | 88 | 1008.0 |
| 20260506110459 | 48 | 345 | 7.0 | 11.3 | 0.02 | 0.51 | 0.47 | 88 | 1008.0 |
| 20260506105456 | 48 | 355 | 7.0 | 12.2 | 0.02 | 0.50 | 0.47 | 88 | 1008.0 |
| 20260506104955 | 48 | 345 | 7.8 | 12.2 | 0.02 | 0.50 | 0.46 | 88 | 1008.0 |
| 20260506104456 | 49 | 344 | 6.1 | 11.3 | 0.02 | 0.50 | 0.46 | 88 | 1007.9 |
| 20260506104229 | 49 | 348 | 6.1 | 11.3 | 0.02 | 0.50 | 0.46 | 88 | 1007.9 |
| 20260506103455 | 49 | 350 | 6.1 | 10.4 | 0.02 | 0.50 | 0.46 | 88 | 1007.8 |
| 20260506102953 | 49 | 329 | 5.2 | 9.6 | 0.02 | 0.50 | 0.46 | 88 | 1007.8 |
| 20260506102454 | 49 | 348 | 5.2 | 9.6 | 0.02 | 0.50 | 0.46 | 88 | 1007.8 |
| 20260506101953 | 49 | 0 | 5.2 | 8.7 | 0.02 | 0.50 | 0.46 | 88 | 1007.7 |
| 20260506101452 | 49 | 354 | 6.1 | 11.3 | 0.02 | 0.50 | 0.46 | 88 | 1007.7 |
| 20260506100950 | 49 | 327 | 6.1 | 11.3 | 0.02 | 0.50 | 0.46 | 88 | 1007.7 |
| 20260506100450 | 49 | 358 | 5.2 | 9.6 | 0.02 | 0.50 | 0.46 | 88 | 1007.7 |
| 20260506095950 | 50 | 353 | 5.2 | 8.7 | 0.02 | 0.47 | 0.46 | 88 | 1007.5 |
| 20260506095724 | 49 | 0 | 5.2 | 8.7 | 0.02 | 0.47 | 0.45 | 88 | 1007.5 |
| 20260506094950 | 49 | 330 | 4.3 | 7.8 | 0.02 | 0.47 | 0.45 | 88 | 1007.5 |
| 20260506094447 | 49 | 351 | 3.5 | 7.8 | 0.02 | 0.47 | 0.45 | 88 | 1007.4 |
| 20260506093946 | 49 | 337 | 5.2 | 7.8 | 0.02 | 0.47 | 0.45 | 88 | 1007.4 |
| 20260506093718 | 50 | 337 | 4.3 | 7.8 | 0.02 | 0.47 | 0.44 | 88 | 1007.4 |
| 20260506092944 | 50 | 357 | 5.2 | 7.8 | 0.02 | 0.47 | 0.44 | 88 | 1007.4 |
| 20260506092445 | 49 | 6 | 3.5 | 7.8 | 0.02 | 0.47 | 0.44 | 88 | 1007.4 |
| 20260506091944 | 49 | 344 | 5.2 | 9.6 | 0.02 | 0.47 | 0.44 | 88 | 1007.3 |
| 20260506091442 | 49 | 351 | 4.3 | 9.6 | 0.02 | 0.47 | 0.44 | 88 | 1007.3 |
| 20260506090942 | 49 | 331 | 4.3 | 7.8 | 0.02 | 0.47 | 0.44 | 88 | 1007.3 |
| 20260506090440 | 49 | 10 | 4.3 | 7.8 | 0.01 | 0.47 | 0.43 | 88 | 1007.2 |
| 20260506085941 | 49 | 355 | 5.2 | 8.7 | 0.02 | 0.46 | 0.43 | 88 | 1007.1 |
| 20260506085449 | 49 | 347 | 5.2 | 8.7 | 0.02 | 0.46 | 0.43 | 88 | 1007.1 |
| 20260506084714 | 49 | 353 | 4.3 | 6.1 | 0.02 | 0.46 | 0.43 | 88 | 1007.0 |
| 20260506083940 | 49 | 334 | 4.3 | 9.6 | 0.02 | 0.46 | 0.43 | 89 | 1007.0 |
| 20260506083440 | 49 | 0 | 5.2 | 9.6 | 0.02 | 0.46 | 0.43 | 88 | 1007.0 |
| 20260506082940 | 49 | 327 | 4.3 | 8.7 | 0.02 | 0.46 | 0.43 | 89 | 1006.9 |
| 20260506082709 | 49 | 353 | 6.1 | 8.7 | 0.02 | 0.46 | 0.43 | 88 | 1006.9 |
| 20260506081934 | 49 | 347 | 4.3 | 6.1 | 0.02 | 0.46 | 0.43 | 88 | 1006.9 |
| 20260506081708 | 49 | 344 | 4.3 | 7.8 | 0.02 | 0.46 | 0.43 | 89 | 1006.8 |
| 20260506080935 | 49 | 354 | 5.2 | 7.8 | 0.02 | 0.46 | 0.43 | 89 | 1006.8 |
| 20260506080434 | 49 | 24 | 5.2 | 7.8 | 0.02 | 0.46 | 0.42 | 89 | 1006.8 |
| 20260506073432 | 49 | 336 | 6.1 | 11.3 | 0.02 | 0.44 | 0.41 | 88 | 1006.7 |
| 20260506072934 | 49 | 0 | 7.8 | 11.3 | 0.02 | 0.44 | 0.41 | 89 | 1006.7 |
| 20260506072432 | 49 | 358 | 3.5 | 8.7 | 0.02 | 0.44 | 0.41 | 88 | 1006.6 |
| 20260506071933 | 49 | 0 | 5.2 | 10.4 | 0.02 | 0.44 | 0.40 | 88 | 1006.7 |
| 20260506070933 | 49 | 35 | 5.2 | 8.7 | 0.02 | 0.44 | 0.40 | 88 | 1006.7 |
| 20260506070431 | 49 | 0 | 4.3 | 9.6 | 0.02 | 0.44 | 0.40 | 89 | 1006.6 |
| 20260506061931 | 49 | 0 | 5.2 | 8.7 | 0.03 | 0.42 | 0.39 | 89 | 1006.4 |
| 20260506061430 | 49 | 347 | 5.2 | 9.6 | 0.04 | 0.42 | 0.39 | 89 | 1006.4 |
| 20260506061205 | 49 | 8 | 7.0 | 9.6 | 0.05 | 0.42 | 0.39 | 89 | 1006.4 |
| 20260506060431 | 49 | 0 | 5.2 | 8.7 | 0.04 | 0.42 | 0.38 | 89 | 1006.3 |
| 20260506051206 | 49 | 345 | 5.2 | 7.8 | 0.06 | 0.37 | 0.34 | 88 | 1006.2 |
| 20260506050431 | 49 | 330 | 4.3 | 7.8 | 0.07 | 0.37 | 0.34 | 88 | 1006.2 |
| 20260506044432 | 48 | 0 | 5.2 | 7.8 | 0.06 | 0.31 | 0.31 | 88 | 1006.2 |
| 20260506043931 | 49 | 0 | 4.3 | 6.1 | 0.06 | 0.31 | 0.31 | 88 | 1006.2 |
| 20260506043432 | 48 | 340 | 4.3 | 8.7 | 0.06 | 0.31 | 0.30 | 88 | 1006.2 |
| 20260506043210 | 48 | 0 | 5.2 | 9.6 | 0.06 | 0.31 | 0.30 | 88 | 1006.2 |
| 20260506042431 | 48 | 338 | 5.2 | 9.6 | 0.06 | 0.31 | 0.29 | 89 | 1006.2 |
| 20260506041931 | 48 | 0 | 3.5 | 5.2 | 0.06 | 0.31 | 0.28 | 89 | 1006.1 |
| 20260506041706 | 48 | 0 | 3.5 | 6.1 | 0.06 | 0.31 | 0.28 | 88 | 1006.2 |
| 20260506040932 | 48 | 0 | 4.3 | 6.1 | 0.06 | 0.31 | 0.28 | 88 | 1006.3 |
| 20260506040710 | 48 | 0 | 3.5 | 5.2 | 0.05 | 0.31 | 0.27 | 88 | 1006.3 |
| 20260506040201 | 48 | 344 | 4.3 | 6.1 | 0.06 | 0.25 | 0.27 | 88 | 1006.2 |
| 20260506035433 | 48 | 16 | 3.5 | 6.1 | 0.05 | 0.25 | 0.26 | 88 | 1006.2 |
| 20260506034933 | 48 | 350 | 3.5 | 6.1 | 0.06 | 0.25 | 0.26 | 88 | 1006.2 |
| 20260506034434 | 48 | 348 | 3.5 | 6.1 | 0.06 | 0.25 | 0.25 | 88 | 1006.4 |
| 20260506033931 | 48 | 27 | 3.5 | 6.1 | 0.06 | 0.25 | 0.25 | 88 | 1006.3 |
| 20260506033432 | 48 | 340 | 3.5 | 6.1 | 0.06 | 0.25 | 0.24 | 88 | 1006.4 |
| 20260506032931 | 48 | 357 | 4.3 | 7.8 | 0.06 | 0.25 | 0.24 | 88 | 1006.3 |
| 20260506032431 | 48 | 351 | 2.6 | 7.8 | 0.06 | 0.25 | 0.24 | 88 | 1006.4 |
| 20260506032203 | 48 | 344 | 3.5 | 6.1 | 0.06 | 0.25 | 0.23 | 88 | 1006.4 |
| 20260506031432 | 48 | 338 | 3.5 | 6.1 | 0.07 | 0.25 | 0.23 | 88 | 1006.4 |
| 20260506030931 | 48 | 337 | 3.5 | 7.8 | 0.07 | 0.25 | 0.22 | 88 | 1006.5 |
| 20260506030706 | 48 | 347 | 3.5 | 7.8 | 0.08 | 0.25 | 0.22 | 88 | 1006.6 |
| 20260506025932 | 48 | 0 | 3.5 | 6.1 | 0.09 | 0.17 | 0.21 | 88 | 1006.6 |
| 20260506025431 | 48 | 343 | 3.5 | 6.1 | 0.09 | 0.17 | 0.21 | 88 | 1006.7 |
| 20260506024932 | 48 | 355 | 4.3 | 6.1 | 0.09 | 0.17 | 0.20 | 88 | 1006.8 |
| 20260506024431 | 48 | 0 | 3.5 | 7.8 | 0.09 | 0.17 | 0.20 | 88 | 1006.7 |
| 20260506023930 | 48 | 0 | 5.2 | 7.8 | 0.09 | 0.17 | 0.20 | 88 | 1006.7 |
| 20260506023431 | 48 | 0 | 5.2 | 7.8 | 0.08 | 0.17 | 0.19 | 88 | 1006.7 |
| 20260506022931 | 48 | 0 | 5.2 | 7.8 | 0.08 | 0.17 | 0.18 | 88 | 1006.7 |
| 20260506022432 | 48 | 14 | 4.3 | 7.8 | 0.07 | 0.17 | 0.17 | 88 | 1006.7 |
| 20260506021931 | 48 | 353 | 4.3 | 9.6 | 0.06 | 0.17 | 0.17 | 88 | 1006.8 |
| 20260506021432 | 48 | 350 | 6.1 | 9.6 | 0.06 | 0.17 | 0.16 | 88 | 1006.7 |
| 20260506020931 | 48 | 10 | 6.1 | 9.6 | 0.06 | 0.17 | 0.15 | 88 | 1006.8 |
| 20260506020704 | 48 | 348 | 5.2 | 8.7 | 0.05 | 0.17 | 0.14 | 88 | 1006.8 |
| 20260506015931 | 49 | 357 | 5.2 | 8.7 | 0.03 | 0.13 | 0.13 | 88 | 1006.9 |
| 20260506015431 | 49 | 341 | 5.2 | 9.6 | 0.04 | 0.13 | 0.13 | 88 | 1006.9 |
| 20260506014931 | 49 | 337 | 5.2 | 9.6 | 0.03 | 0.13 | 0.12 | 88 | 1006.8 |
| 20260506014704 | 49 | 348 | 3.5 | 6.1 | 0.03 | 0.13 | 0.11 | 88 | 1007.0 |
| 20260506013933 | 49 | 0 | 3.5 | 7.8 | 0.03 | 0.13 | 0.11 | 88 | 1006.9 |
| 20260506013431 | 49 | 358 | 4.3 | 7.8 | 0.04 | 0.13 | 0.11 | 88 | 1006.9 |
| 20260506013205 | 49 | 348 | 3.5 | 5.2 | 0.03 | 0.13 | 0.10 | 88 | 1007.0 |
| 20260506012431 | 49 | 358 | 3.5 | 8.7 | 0.04 | 0.13 | 0.10 | 88 | 1007.0 |
| 20260506011931 | 49 | 11 | 4.3 | 8.7 | 0.04 | 0.13 | 0.10 | 88 | 1007.0 |
| 20260506011433 | 49 | 0 | 3.5 | 7.8 | 0.04 | 0.13 | 0.10 | 88 | 1007.0 |
| 20260506010930 | 49 | 20 | 5.2 | 7.8 | 0.04 | 0.13 | 0.09 | 88 | 1007.0 |
| 20260506010432 | 49 | 0 | 2.6 | 7.8 | 0.04 | 0.13 | 0.09 | 88 | 1007.1 |
| 20260506005932 | 49 | 21 | 3.5 | 7.8 | 0.04 | 0.09 | 0.09 | 88 | 1007.1 |
| 20260506005431 | 49 | 0 | 4.3 | 10.4 | 0.04 | 0.09 | 0.09 | 88 | 1007.1 |
| 20260506004933 | 49 | 0 | 5.2 | 10.4 | 0.04 | 0.09 | 0.09 | 88 | 1007.1 |
| 20260506004432 | 49 | 0 | 5.2 | 10.4 | 0.04 | 0.09 | 0.08 | 88 | 1007.2 |
| 20260506004204 | 49 | 351 | 6.1 | 10.4 | 0.04 | 0.09 | 0.08 | 88 | 1007.2 |
| 20260506003704 | 49 | 34 | 5.2 | 7.8 | 0.03 | 0.09 | 0.07 | 87 | 1007.3 |
| 20260506002930 | 49 | 0 | 3.5 | 8.7 | 0.04 | 0.09 | 0.07 | 88 | 1007.3 |
| 20260506002431 | 49 | 338 | 5.2 | 8.7 | 0.03 | 0.09 | 0.06 | 87 | 1007.3 |
| 20260506001931 | 49 | 350 | 4.3 | 8.7 | 0.04 | 0.09 | 0.06 | 87 | 1007.4 |
| 20260506001431 | 49 | 351 | 4.3 | 8.7 | 0.04 | 0.09 | 0.06 | 87 | 1007.4 |
| 20260506000930 | 49 | 347 | 4.3 | 8.7 | 0.03 | 0.09 | 0.06 | 88 | 1007.5 |
| 20260506000433 | 49 | 6 | 3.5 | 9.6 | 0.04 | 0.09 | 0.06 | 88 | 1007.5 |
| 20260505235931 | 49 | 0 | 5.2 | 9.6 | 0.04 | 0.06 | 0.06 | 87 | 1007.6 |
| 20260505235431 | 49 | 357 | 4.3 | 6.1 | 0.03 | 0.06 | 0.05 | 87 | 1007.6 |
| 20260505234929 | 49 | 0 | 2.6 | 7.8 | 0.03 | 0.06 | 0.05 | 87 | 1007.6 |
| 20260505234430 | 49 | 3 | 4.3 | 7.8 | 0.03 | 0.06 | 0.04 | 87 | 1007.7 |
| 20260505234204 | 49 | 0 | 3.5 | 7.8 | 0.03 | 0.06 | 0.04 | 87 | 1007.7 |
| 20260505233430 | 49 | 0 | 4.3 | 9.6 | 0.03 | 0.06 | 0.04 | 87 | 1007.8 |
| 20260505232931 | 49 | 0 | 4.3 | 9.6 | 0.02 | 0.06 | 0.03 | 87 | 1007.8 |
| 20260505232429 | 49 | 25 | 3.5 | 9.6 | 0.02 | 0.06 | 0.03 | 87 | 1007.8 |
| 20260505231928 | 49 | 0 | 4.3 | 9.6 | 0.02 | 0.06 | 0.02 | 87 | 1008.0 |
| 20260505231427 | 49 | 1 | 4.3 | 8.7 | 0.02 | 0.06 | 0.02 | 87 | 1007.8 |
| 20260505230926 | 50 | 0 | 5.2 | 8.7 | 0.02 | 0.06 | 0.02 | 87 | 1007.7 |
| 20260505230425 | 50 | 0 | 4.3 | 7.8 | 0.02 | 0.06 | 0.02 | 87 | 1007.7 |
| 20260505225924 | 50 | 0 | 4.3 | 10.4 | 0.02 | 0.04 | 0.02 | 87 | 1007.8 |
| 20260505225424 | 50 | 348 | 6.1 | 10.4 | 0.02 | 0.04 | 0.02 | 87 | 1007.9 |
| 20260505225155 | 50 | 0 | 5.2 | 9.6 | 0.02 | 0.04 | 0.02 | 87 | 1007.9 |
| 20260505224423 | 50 | 341 | 5.2 | 9.6 | 0.02 | 0.04 | 0.01 | 87 | 1007.9 |
| 20260505223923 | 50 | 23 | 3.5 | 13.0 | 0.02 | 0.04 | 0.01 | 87 | 1008.0 |
| 20260505223420 | 50 | 8 | 4.3 | 13.0 | 0.02 | 0.04 | 0.01 | 87 | 1008.0 |
| 20260505222922 | 50 | 38 | 6.1 | 13.0 | 0.02 | 0.04 | 0.01 | 87 | 1007.9 |
| 20260505222421 | 50 | 7 | 3.5 | 10.4 | 0.02 | 0.04 | 0.01 | 86 | 1008.0 |
| 20260505221921 | 50 | 20 | 6.1 | 10.4 | 0.02 | 0.04 | 0.01 | 86 | 1008.0 |
| 20260505221417 | 50 | 1 | 4.3 | 8.7 | 0.02 | 0.04 | 0.01 | 86 | 1008.0 |
| 20260505220918 | 50 | 0 | 4.3 | 8.7 | 0.02 | 0.04 | 0.00 | 86 | 1008.1 |
| 20260505220418 | 50 | 343 | 4.3 | 7.8 | 0.02 | 0.04 | 0.00 | 86 | 1008.0 |
| 20260505215918 | 50 | 24 | 3.5 | 9.6 | 0.02 | 0.02 | 0.04 | 86 | 1008.0 |
| 20260505215417 | 51 | 4 | 5.2 | 9.6 | 0.02 | 0.02 | 0.04 | 86 | 1008.0 |
| 20260505214920 | 51 | 345 | 3.5 | 9.6 | 0.02 | 0.02 | 0.03 | 86 | 1008.1 |
| 20260505214416 | 51 | 10 | 3.5 | 9.6 | 0.02 | 0.02 | 0.03 | 85 | 1008.1 |
| 20260505214208 | 51 | 18 | 5.2 | 8.7 | 0.02 | 0.02 | 0.03 | 85 | 1008.2 |
| 20260505213419 | 51 | 0 | 3.5 | 8.7 | 0.01 | 0.02 | 0.02 | 85 | 1008.2 |
| 20260505212918 | 51 | 354 | 4.3 | 6.1 | 0.01 | 0.02 | 0.02 | 85 | 1008.2 |
| 20260505212419 | 51 | 347 | 3.5 | 7.8 | 0.02 | 0.02 | 0.02 | 85 | 1008.2 |
| 20260505211915 | 51 | 18 | 3.5 | 9.6 | 0.02 | 0.02 | 0.02 | 85 | 1008.2 |
| 20260505211415 | 51 | 20 | 5.2 | 9.6 | 0.02 | 0.02 | 0.02 | 85 | 1008.3 |
| 20260505210916 | 51 | 0 | 3.5 | 10.4 | 0.01 | 0.02 | 0.02 | 85 | 1008.3 |
| 20260505210417 | 51 | 10 | 4.3 | 10.4 | 0.01 | 0.02 | 0.02 | 84 | 1008.3 |
| 20260505210148 | 51 | 11 | 5.2 | 10.4 | 0.02 | 0.01 | 0.02 | 84 | 1008.4 |
| 20260505205414 | 51 | 27 | 6.1 | 10.4 | 0.02 | 0.01 | 0.02 | 84 | 1008.4 |
| 20260505205147 | 51 | 20 | 5.2 | 8.7 | 0.02 | 0.01 | 0.02 | 84 | 1008.4 |
| 20260505204417 | 51 | 353 | 4.3 | 8.7 | 0.02 | 0.01 | 0.02 | 84 | 1008.4 |